Time,TemperatureF,DewpointF,PressureIn,WindDirection,WindDirectionDegrees,WindSpeedMPH,WindSpeedGustMPH,Humidity,HourlyPrecipIn,Conditions,Clouds,dailyrainin,SoftwareType,DateUTC
2013-01-03 00:09:00,18.6,16.0,30.07,SE,140,1.0,5.0,91,0.00,,,0.00,weatherlink.com 1.10,2013-01-03 06:09:00,
2013-01-03 00:24:00,18.4,16.0,30.07,ESE,122,2.0,4.0,91,0.00,,,0.00,weatherlink.com 1.10,2013-01-03 06:24:00,
2013-01-03 00:39:00,18.2,16.0,30.07,SSE,148,1.0,7.0,91,0.00,,,0.00,weatherlink.com 1.10,2013-01-03 06:39:00,
2013-01-03 00:54:00,18.0,16.0,30.07,SE,125,0.0,6.0,91,0.00,,,0.00,weatherlink.com 1.10,2013-01-03 06:54:00,
2013-01-03 01:09:00,17.9,16.0,30.07,ESE,111,1.0,4.0,91,0.00,,,0.00,weatherlink.com 1.10,2013-01-03 07:09:00,
2013-01-03 01:24:00,17.7,15.0,30.07,SSE,148,0.0,3.0,90,0.00,,,0.00,weatherlink.com 1.10,2013-01-03 07:24:00,
2013-01-03 01:39:00,17.5,15.0,30.07,SE,125,0.0,5.0,90,0.00,,,0.00,weatherlink.com 1.10,2013-01-03 07:39:00,
2013-01-03 01:54:00,17.2,15.0,30.08,SE,139,1.0,4.0,90,0.00,,,0.00,weatherlink.com 1.10,2013-01-03 07:54:00,
2013-01-03 02:09:00,16.7,14.0,30.09,SE,136,2.0,5.0,89,0.00,,,0.00,weatherlink.com 1.10,2013-01-03 08:09:00,
2013-01-03 02:24:00,16.2,13.0,30.09,South,172,1.0,6.0,88,0.00,,,0.00,weatherlink.com 1.10,2013-01-03 08:24:00,
2013-01-03 02:40:00,15.8,13.0,30.10,SE,131,1.0,5.0,89,0.00,,,0.00,weatherlink.com 1.10,2013-01-03 08:40:00,
2013-01-03 02:55:00,15.6,13.0,30.10,SSE,165,1.0,4.0,89,0.00,,,0.00,weatherlink.com 1.10,2013-01-03 08:55:00,
2013-01-03 03:10:00,15.4,13.0,30.11,ESE,110,0.0,4.0,89,0.00,,,0.00,weatherlink.com 1.10,2013-01-03 09:10:00,
2013-01-03 03:25:00,15.0,12.0,30.11,South,173,1.0,7.0,89,0.00,,,0.00,weatherlink.com 1.10,2013-01-03 09:25:00,
2013-01-03 03:40:00,14.7,12.0,30.12,SSE,149,1.0,4.0,89,0.00,,,0.00,weatherlink.com 1.10,2013-01-03 09:40:00,
2013-01-03 03:55:00,14.3,12.0,30.13,SE,146,1.0,6.0,89,0.00,,,0.00,weatherlink.com 1.10,2013-01-03 09:55:00,
2013-01-03 04:10:00,13.8,11.0,30.14,SE,140,1.0,2.0,89,0.00,,,0.00,weatherlink.com 1.10,2013-01-03 10:10:00,
2013-01-03 04:25:00,12.6,10.0,30.14,SE,130,1.0,6.0,88,0.00,,,0.00,weatherlink.com 1.10,2013-01-03 10:25:00,
2013-01-03 04:40:00,11.3,8.0,30.15,SE,134,4.0,8.0,87,0.00,,,0.00,weatherlink.com 1.10,2013-01-03 10:40:00,
2013-01-03 04:55:00,10.3,8.0,30.14,ESE,120,0.0,4.0,88,0.00,,,0.00,weatherlink.com 1.10,2013-01-03 10:55:00,
2013-01-03 05:10:00,9.8,7.0,30.15,SE,124,0.0,3.0,88,0.00,,,0.00,weatherlink.com 1.10,2013-01-03 11:10:00,
2013-01-03 05:25:00,9.4,7.0,30.16,SE,127,0.0,5.0,88,0.00,,,0.00,weatherlink.com 1.10,2013-01-03 11:25:00,
2013-01-03 05:40:00,9.0,6.0,30.16,SE,134,0.0,6.0,88,0.00,,,0.00,weatherlink.com 1.10,2013-01-03 11:40:00,
2013-01-03 05:55:00,9.0,6.0,30.17,ESE,115,1.0,3.0,88,0.00,,,0.00,weatherlink.com 1.10,2013-01-03 11:55:00,
2013-01-03 06:10:00,9.0,6.0,30.18,NNE,15,0.0,4.0,89,0.00,,,0.00,weatherlink.com 1.10,2013-01-03 12:10:00,
2013-01-03 06:25:00,9.1,7.0,30.18,South,186,4.0,6.0,89,0.00,,,0.00,weatherlink.com 1.10,2013-01-03 12:25:00,
2013-01-03 06:40:00,9.1,7.0,30.18,SE,125,0.0,3.0,89,0.00,,,0.00,weatherlink.com 1.10,2013-01-03 12:40:00,
2013-01-03 06:55:00,9.0,6.0,30.17,SE,128,0.0,4.0,88,0.00,,,0.00,weatherlink.com 1.10,2013-01-03 12:55:00,
2013-01-03 07:10:00,8.5,6.0,30.17,SSE,157,0.0,3.0,88,0.00,,,0.00,weatherlink.com 1.10,2013-01-03 13:10:00,
2013-01-03 07:25:00,8.0,5.0,30.17,SSE,153,0.0,2.0,88,0.00,,,0.00,weatherlink.com 1.10,2013-01-03 13:25:00,
2013-01-03 07:40:00,7.5,5.0,30.18,ESE,118,2.0,6.0,88,0.00,,,0.00,weatherlink.com 1.10,2013-01-03 13:40:00,
2013-01-03 07:55:00,7.3,4.0,30.18,SSE,148,0.0,6.0,87,0.00,,,0.00,weatherlink.com 1.10,2013-01-03 13:55:00,
2013-01-03 08:10:00,7.0,4.0,30.18,SE,134,1.0,2.0,88,0.00,,,0.00,weatherlink.com 1.10,2013-01-03 14:10:00,
2013-01-03 08:26:00,7.1,4.0,30.18,SE,143,1.0,3.0,88,0.00,,,0.00,weatherlink.com 1.10,2013-01-03 14:26:00,
2013-01-03 08:41:00,6.7,4.0,30.18,SE,136,0.0,3.0,87,0.00,,,0.00,weatherlink.com 1.10,2013-01-03 14:41:00,
2013-01-03 08:56:00,6.7,4.0,30.18,SE,129,1.0,4.0,87,0.00,,,0.00,weatherlink.com 1.10,2013-01-03 14:56:00,
2013-01-03 09:11:00,7.0,4.0,30.18,SE,129,0.0,4.0,87,0.00,,,0.00,weatherlink.com 1.10,2013-01-03 15:11:00,
2013-01-03 09:26:00,7.3,4.0,30.18,SE,129,1.0,4.0,87,0.00,,,0.00,weatherlink.com 1.10,2013-01-03 15:26:00,
2013-01-03 09:41:00,7.7,4.0,30.19,ESE,123,0.0,5.0,86,0.00,,,0.00,weatherlink.com 1.10,2013-01-03 15:41:00,
2013-01-03 09:56:00,8.1,5.0,30.18,SE,131,2.0,3.0,86,0.00,,,0.00,weatherlink.com 1.10,2013-01-03 15:56:00,
2013-01-03 10:11:00,8.4,5.0,30.18,SE,124,1.0,4.0,85,0.00,,,0.00,weatherlink.com 1.10,2013-01-03 16:11:00,
2013-01-03 10:26:00,8.8,5.0,30.18,SE,136,1.0,5.0,84,0.00,,,0.00,weatherlink.com 1.10,2013-01-03 16:26:00,
2013-01-03 10:41:00,9.4,6.0,30.18,SE,124,2.0,4.0,84,0.00,,,0.00,weatherlink.com 1.10,2013-01-03 16:41:00,
2013-01-03 10:56:00,9.7,6.0,30.18,ESE,120,3.0,4.0,83,0.00,,,0.00,weatherlink.com 1.10,2013-01-03 16:56:00,
2013-01-03 11:11:00,10.1,6.0,30.18,SE,143,3.0,6.0,82,0.00,,,0.00,weatherlink.com 1.10,2013-01-03 17:11:00,
2013-01-03 11:26:00,10.6,6.0,30.17,SE,124,0.0,5.0,81,0.00,,,0.00,weatherlink.com 1.10,2013-01-03 17:26:00,
2013-01-03 11:41:00,12.1,7.0,30.16,ESE,103,0.0,4.0,80,0.00,,,0.00,weatherlink.com 1.10,2013-01-03 17:41:00,
2013-01-03 11:56:00,12.6,7.0,30.16,SE,128,2.0,7.0,79,0.00,,,0.00,weatherlink.com 1.10,2013-01-03 17:56:00,
2013-01-03 12:11:00,13.9,7.0,30.15,SE,132,2.0,3.0,75,0.00,,,0.00,weatherlink.com 1.10,2013-01-03 18:11:00,
2013-01-03 12:26:00,15.3,8.0,30.14,East,100,0.0,2.0,72,0.00,,,0.00,weatherlink.com 1.10,2013-01-03 18:26:00,
2013-01-03 12:41:00,15.7,7.0,30.13,SE,131,1.0,6.0,68,0.00,,,0.00,weatherlink.com 1.10,2013-01-03 18:41:00,
2013-01-03 12:56:00,16.8,8.0,30.12,East,97,1.0,3.0,67,0.00,,,0.00,weatherlink.com 1.10,2013-01-03 18:56:00,
2013-01-03 13:11:00,17.1,8.0,30.12,East,100,2.0,5.0,67,0.00,,,0.00,weatherlink.com 1.10,2013-01-03 19:11:00,
2013-01-03 13:56:00,17.2,7.0,30.10,ESE,102,0.0,6.0,63,0.00,,,0.00,weatherlink.com 1.10,2013-01-03 19:56:00,
2013-01-03 14:11:00,17.1,6.0,30.08,ESE,105,1.0,4.0,62,0.00,,,0.00,weatherlink.com 1.10,2013-01-03 20:11:00,
2013-01-03 14:26:00,16.6,7.0,30.08,ESE,108,0.0,4.0,65,0.00,,,0.00,weatherlink.com 1.10,2013-01-03 20:26:00,
2013-01-03 14:41:00,16.9,8.0,30.09,East,96,0.0,6.0,67,0.00,,,0.00,weatherlink.com 1.10,2013-01-03 20:41:00,
2013-01-03 14:56:00,16.5,8.0,30.09,SE,124,1.0,7.0,68,0.00,,,0.00,weatherlink.com 1.10,2013-01-03 20:56:00,
2013-01-03 15:11:00,16.3,9.0,30.07,ESE,118,1.0,5.0,72,0.00,,,0.00,weatherlink.com 1.10,2013-01-03 21:11:00,
2013-01-03 15:26:00,16.0,9.0,30.07,SE,131,0.0,4.0,73,0.00,,,0.00,weatherlink.com 1.10,2013-01-03 21:26:00,
2013-01-03 16:11:00,14.7,9.0,30.06,East,99,1.0,6.0,77,0.00,,,0.00,weatherlink.com 1.10,2013-01-03 22:11:00,
2013-01-03 16:26:00,14.3,9.0,30.05,East,98,0.0,5.0,78,0.00,,,0.00,weatherlink.com 1.10,2013-01-03 22:26:00,
2013-01-03 16:41:00,13.7,8.0,30.05,ENE,70,2.0,2.0,78,0.00,,,0.00,weatherlink.com 1.10,2013-01-03 22:41:00,
2013-01-03 16:56:00,13.6,8.0,30.04,East,84,1.0,4.0,79,0.00,,,0.00,weatherlink.com 1.10,2013-01-03 22:56:00,
2013-01-03 17:11:00,13.4,8.0,30.04,East,84,2.0,6.0,80,0.00,,,0.00,weatherlink.com 1.10,2013-01-03 23:11:00,
2013-01-03 17:26:00,13.2,8.0,30.03,East,90,0.0,3.0,80,0.00,,,0.00,weatherlink.com 1.10,2013-01-03 23:26:00,
2013-01-03 17:41:00,13.1,8.0,30.02,ESE,104,1.0,3.0,81,0.00,,,0.00,weatherlink.com 1.10,2013-01-03 23:41:00,
2013-01-03 17:56:00,13.2,8.0,30.02,East,86,0.0,3.0,81,0.00,,,0.00,weatherlink.com 1.10,2013-01-03 23:56:00,
2013-01-03 18:11:00,12.8,8.0,30.02,East,97,1.0,4.0,81,0.00,,,0.00,weatherlink.com 1.10,2013-01-04 00:11:00,
2013-01-03 18:26:00,12.5,8.0,30.01,SSE,154,0.0,3.0,81,0.00,,,0.00,weatherlink.com 1.10,2013-01-04 00:26:00,
2013-01-03 18:42:00,12.1,8.0,30.00,ESE,114,0.0,4.0,82,0.00,,,0.00,weatherlink.com 1.10,2013-01-04 00:42:00,
2013-01-03 18:56:00,11.7,8.0,29.99,ESE,111,1.0,4.0,83,0.00,,,0.00,weatherlink.com 1.10,2013-01-04 00:56:00,
2013-01-03 19:11:00,11.6,8.0,29.98,ESE,104,0.0,4.0,84,0.00,,,0.00,weatherlink.com 1.10,2013-01-04 01:11:00,
2013-01-03 19:27:00,11.5,8.0,29.97,ESE,119,2.0,6.0,84,0.00,,,0.00,weatherlink.com 1.10,2013-01-04 01:27:00,
2013-01-03 19:42:00,11.3,8.0,29.96,ESE,106,1.0,7.0,85,0.00,,,0.00,weatherlink.com 1.10,2013-01-04 01:42:00,
2013-01-03 19:57:00,11.2,8.0,29.95,ESE,108,1.0,4.0,86,0.00,,,0.00,weatherlink.com 1.10,2013-01-04 01:57:00,
2013-01-03 20:12:00,11.1,8.0,29.95,ESE,113,1.0,4.0,86,0.00,,,0.00,weatherlink.com 1.10,2013-01-04 02:12:00,
2013-01-03 20:27:00,11.1,8.0,29.94,East,90,4.0,8.0,87,0.00,,,0.00,weatherlink.com 1.10,2013-01-04 02:27:00,
2013-01-03 20:42:00,11.2,8.0,29.93,ESE,102,0.0,5.0,87,0.00,,,0.00,weatherlink.com 1.10,2013-01-04 02:42:00,
2013-01-03 20:57:00,11.2,8.0,29.93,ESE,113,2.0,8.0,88,0.00,,,0.00,weatherlink.com 1.10,2013-01-04 02:57:00,
2013-01-03 21:12:00,11.2,8.0,29.92,East,97,1.0,6.0,88,0.00,,,0.00,weatherlink.com 1.10,2013-01-04 03:12:00,
2013-01-03 21:27:00,11.1,9.0,29.91,ESE,103,1.0,3.0,89,0.00,,,0.00,weatherlink.com 1.10,2013-01-04 03:27:00,
2013-01-03 21:42:00,11.4,9.0,29.90,East,94,0.0,5.0,89,0.00,,,0.00,weatherlink.com 1.10,2013-01-04 03:42:00,
2013-01-03 21:57:00,11.7,9.0,29.90,East,94,3.0,4.0,89,0.00,,,0.00,weatherlink.com 1.10,2013-01-04 03:57:00,
2013-01-03 22:12:00,12.2,10.0,29.92,SE,124,2.0,7.0,89,0.00,,,0.00,weatherlink.com 1.10,2013-01-04 04:12:00,
2013-01-03 22:27:00,12.1,10.0,29.94,SE,135,0.0,3.0,89,0.00,,,0.00,weatherlink.com 1.10,2013-01-04 04:27:00,
2013-01-03 22:42:00,11.7,9.0,29.93,East,84,0.0,1.0,89,0.00,,,0.00,weatherlink.com 1.10,2013-01-04 04:42:00,
2013-01-03 22:57:00,12.1,10.0,29.93,East,98,0.0,4.0,90,0.00,,,0.00,weatherlink.com 1.10,2013-01-04 04:57:00,
2013-01-03 23:27:00,13.5,11.0,29.92,ESE,116,1.0,7.0,89,0.00,,,0.00,weatherlink.com 1.10,2013-01-04 05:27:00,
2013-01-03 23:42:00,13.5,11.0,29.92,SE,136,0.0,7.0,88,0.00,,,0.00,weatherlink.com 1.10,2013-01-04 05:42:00,
2013-01-03 23:57:00,13.4,11.0,29.92,SE,128,3.0,3.0,88,0.00,,,0.00,weatherlink.com 1.10,2013-01-04 05:57:00,